www.pogodaiklimat.ru

Погода и климат >> Архив погоды >> Боливия >> Якуиба


ПОГОДА в Якуибе

  • Прогноз погоды в Якуибе
  • Монитор погоды в Якуибе

АРХИВ ПОГОДЫ в Якуибе

Время (UTC), дата Ветер
(напр.,м/с)
 
Видим.   Явления Облачность Т
(С)
Тd
(С)
f
(%)
Тe
(С)
Тes
(С)
Комфортность P
(гПа)
Po
(гПа)
Тmin
(С)
Tmax
(С)
R
(мм)
R24
(мм)
S
(см)
12 18.08 ЮЗ 3 15 км дым 10/4 600 м
[Sc Ac lent]
+17.8 +14.2 79 +18 +18 1016.6 942.8 +11.9
15 18.08 ЮЗ 2 15 км дым 6/3 600 м
[Sc Ac lent]
+21.3 +14.6 66 +24 +31 комфорт 1018.2 944.4
18 18.08 ЮЗ 2 15 км дым 8/3 600 м
[Sc Ac lent]
+22.9 +14.8 60 +27 +31 душно 1016.5 942.7
21 18.08 ЮЗ 3 15 км дым 10/4 600 м
[Sc Ac lent]
+21.1 +14.6 66 +24 +24 комфорт 1015.4 941.6 +24.1
12 19.08 Ю 3 15 км дым 9/0 2000 м
[Ac trans]
+14.0 +6.7 61 +13 +14 1018.3 948.3 +11.6
15 19.08 Ю 3 15 км дым 9/0 2000 м
[Ac trans]
+17.0 +6.6 50 +17 +23 1017.8 948.3
18 19.08 ЮЗ 2 15 км дым 3/0
[Ci fib]
+20.9 +9.8 49 +23 +36 комфорт 1014.6 945.1
21 19.08 ЮЗ 3 15 км дым 5/0 2000 м
[Ac und]
+20.9 +11.6 55 +23 +24 комфорт 1013.1 943.6 +23.4
12 20.08 штиль 0 20 км 9/0 2000 м
[Ac und]
+9.9 +7.2 83 +9 +10 1018.0 948.5 +4.6
15 20.08 штиль 0 20 км 10/0 2000 м
[Ac und]
+16.1 +8.9 62 +16 +22 1019.1 949.5
18 20.08 штиль 0 20 км 9/0 2000 м
[Ac trans]
+20.0 +9.9 52 +21 +29 комфорт 1018.6 947.6
21 20.08 штиль 0 20 км 8/0 2000 м
[Ac trans]
+18.8 +10.4 58 +19 +20 1017.8 946.0 +21.0
12 21.08 штиль 0 15 км дым ясно +11.0 +7.4 78 +10 +14 1020.2 948.0 +6.2
15 21.08 штиль 0 15 км дым ясно +21.0 +10.4 51 +23 +41 комфорт 1019.4 947.8
18 21.08 штиль 0 15 км дым ясно +24.9 +9.5 38 +26 +42 жарко 1015.2 943.6
21 21.08 СВ 3 15 км дым ясно +24.6 +11.2 43 +26 +27 жарко 1013.6 942.0 +26.6
12 22.08 штиль 0 15 км ясно +11.4 +7.4 76 +11 +14 1015.3 943.6
15 22.08 штиль 0 20 км 10/0 2000 м
[As op]
+18.1 +11.0 63 +18 +22 1017.8 946.1
18 22.08 Ю 3 20 км 9/0 2000 м
[Ac trans]
+19.2 +10.8 58 +21 +26 комфорт 1016.4 944.2
21 22.08 штиль 0 20 км 10/0 2000 м
[As op]
+17.4 +11.8 70 +17 +18 1016.8 945.2 +20.8
12 23.08 штиль 0 15 км дым ясно +13.2 +9.8 80 +13 +16 1022.2 949.6 +6.8
15 23.08 СВ 4 15 км дым ясно +22.5 +13.4 56 +25 +35 комфорт 1022.9 949.0
18 23.08 СВ 5 20 км дым ясно +26.5 +14.3 47 +29 +35 жарко 1018.2 945.0
21 23.08 В 4 15 км дым ясно +24.8 +14.3 52 +27 +28 жарко 1016.8 943.1 +28.1
12 24.08 штиль 0 20 км дым ясно +13.3 +11.2 87 +13 +16 1016.8 941.7 +6.8
15 24.08 СВ 5 20 км дым ясно +25.7 +13.6 47 +28 +35 жарко 1016.0 941.0
18 24.08 СВ 5 20 км дым ясно +29.3 +16.2 45 +32 +39 душно 1011.3 937.4
21 24.08 С 3 20 км дым ясно +30.0 +17.9 48 +34 +35 очень
душно
1009.2 936.0 +30.8

 

Местоположение метеостанции Якуиба (Боливия): широта -21.95 долгота -63.65 высота над уровнем моря 645 м.

В архиве по умолчанию представлена погода в Якуибе за последнюю неделю. Архивные данные за месяц целиком и за предыдущие месяцы, начиная с января 2011 года, Вы можете получить, выбрав интересующий диапазон дат из раскрывающегося списка и нажав кнопку "Ввод!".


*Определитесь, кто Вы:
робот инопланетянин человек

Внимание! Время в таблицах - всемирное. Для получения местного времени необходимо прибавить поправку, которая равна -4 ч.

Смотрите также архив погоды в соседних городах и на ближайших метеорологических станциях:

Погода в Тартагале (Аргентина) (76 км)
Погода в Вилья-Монтесе (Боливия) (81 км)
Погода в Бермехо (Боливия) (113 км)
Погода в Тарихе (Боливия) (117 км)
Погода в Сан-Рамон-де-ла-Нуэва-Оране (Аргентина) (150 км)
Погода в Ла-Кьяке (Аргентина) (202 км)
Погода в Камири (Боливия) (217 км)
Погода в Пратс-Гиле (Парагвай) (236 км)
Погода в Монтеагудо (Боливия) (243 км)
Погода в Сан-Сальвадор-де-Жужуе (Аргентина) (307 км)

Пояснения к столбцам:

Ветер - указаны скорость ветра в м/с - средняя за 10 мин, порывы в срок и между сроками (в фигурных скобках) и направление, откуда дует ветер: С - северный, СВ - северо-восточный, В - восточный, ЮВ - юго-восточный, Ю - южный, ЮЗ - юго-западный, З - западный, СЗ - северо-западный.
Видимость - горизонтальная дальность видимости в метрах или километрах. При видимости от 1 до 10 км при отсутствии осадков обычно наблюдается дымка, при ухудшении видимости до 1 км и менее - туман. В сухую погоду видимость может ухудшаться дымом, пылью или мглою.
Явления - указаны атмосферные явления, наблюдавшиеся в срок или в последний час перед сроком; фигурными скобками обозначены явления, наблюдавшиеся между сроками (за 1-3 часа до срока); квадратными скобками обозначены град или гололедные отложения с указанием их диаметра в мм.
Облачность - указаны через наклонную черту общая и нижняя облачность в баллах и высота нижней границы облаков в метрах; квадратными скобками обозначены формы облаков: Ci - перистые, Cs - перисто-слоистые, Cc - перисто-кучевые, Ac - высококучевые, As - высокослоистые, Sc - слоисто-кучевые, Ns - слоисто-дождевые, Cu - кучевые, Cb - кучево-дождевые. Подробнее классификацию облаков см. в Атласе облаков (PDF).
T - Температура воздуха - температура, измеренная на высоте 2 м над землей.
Td - Температура точки росы - температура, при понижении до которой содержащийся в воздухе водяной пар достигнет насыщения.
f - Относительная влажность воздуха - влажноcть воздуха, измеренная на высоте 2 м над землей.
Te - Эффективная температура - температура, которую ощущает одетый по сезону человек в тени. Характеристика душности погоды. При расчете учитывается влияние влажности воздуха и скорости ветра на теплоощущения человека.
Tes - Эффективная температура на солнце - температура, которую ощущает человек, с поправкой на солнечный нагрев. Характеристика знойности погоды. Зависит от высоты солнца над горизонтом, облачности и скорости ветра. Ночью, в пасмурную погоду, а также при ветре 12 м/с и более поправка равна нулю.
P - Атмосферное давление - приведенное к уровню моря атмосферное давление.
Po - Атмосферное давление - измеренное на уровне метеостанции атмосферное давление.
Tmin - Минимальная температура - минимум температуры воздуха на высоте 2 м над землей.
Tmax - Максимальная температура - максимум температуры воздуха на высоте 2 м над землей.
R - Количество осадков - Количество выпавших осадков за период времени, мм. При наведении курсора мыши на число - период времени, за который выпало указанное количество осадков.
R24 - Количество осадков - Количество выпавших осадков за 24 часа, мм.
S - Снежный покров - Высота снежного покрова, см. При наведении курсора мыши на число - состояние снежного покрова и степень покрытия местности в баллах.